Weather History for Shreveport Downtown, LA

Change the Weather History Date:

Tuesday, February 12, 2013

  Actual Average (KSHV) Record (KSHV)
Temperature  
Mean Temperature 47 °F 50 °F  
Max Temperature 48 °F 61 °F 82 °F (1962)
Min Temperature 46 °F 39 °F -5 °F (1899)
Degree Days  
Heating Degree Days 18 15  
Month to date heating degree days 196  
Since 1 July heating degree days 1668  
Cooling Degree Days 0 0  
Month to date cooling degree days 0  
Year to date cooling degree days 4  
Moisture  
Dew Point 46 °F    
Average Humidity 94    
Maximum Humidity 100    
Minimum Humidity 89    
Precipitation  
Precipitation 0.21 in 0.18 in 2.97 in (1984)
Month to date precipitation 2.03  
Year to date precipitation 6.23  
Snow  
Snow 0.00 in - - ()
Month to date snowfall  
Since 1 July snowfall  
Snow Depth -    
Sea Level Pressure  
Sea Level Pressure 29.91 in    
Wind  
Wind Speed 7 mph (NE)    
Max Wind Speed 14 mph    
Max Gust Speed 29 mph    
Visibility 9 miles    
Events Rain , Thunderstorm    
T = Trace of Precipitation, MM = Missing Value Source: NWS Daily Summary

Daily Weather History Graph

Daily Weather History Graph

Search for Another Location

Airport:

Trip Planner

Search our weather history database for the weather conditions in past years. The results will help you decide how hot, cold, wet, or windy it might be!

Date:

Astronomy

Feb. 12, 2013 Rise Set
Actual Time 7:00 AM CST 5:58 PM CST
Civil Twilight 6:35 AM CST 6:23 PM CST
Nautical Twilight 6:06 AM CST 6:52 PM CST
Astronomical Twilight 5:37 AM CST 7:21 PM CST
Moon 8:09 AM CST (2/12) 8:46 PM CST (2/12)
Length of Visible Light 11h 48m
Length of Day
10h 57m
Waxing Crescent, 7% of the Moon is Illuminated
Feb 12
Waxing Crescent
Feb 17
First Quarter
Feb 25
Full
Mar 4
Last Quarter
Mar 11
New

Hourly Weather History & Observations

Time (CST) Temp. Windchill Dew Point Humidity Pressure Visibility Wind Dir Wind Speed Gust Speed Precip Events Conditions
12:53 AM 48.0 °F - 46.0 °F 93% 30.06 in 10.0 mi ENE 5.8 mph - 0.02 in   Mostly Cloudy
1:53 AM 46.9 °F - 45.0 °F 93% 30.02 in 10.0 mi ENE 4.6 mph - N/A   Clear
2:53 AM 46.0 °F 43.9 °F 44.1 °F 93% 30.00 in 10.0 mi ENE 4.6 mph - N/A   Clear
3:53 AM 46.0 °F 43.9 °F 44.1 °F 93% 29.98 in 10.0 mi ENE 4.6 mph - N/A   Partly Cloudy
4:53 AM 46.9 °F - 45.0 °F 93% 29.97 in 10.0 mi ENE 5.8 mph - N/A   Mostly Cloudy
5:53 AM 48.0 °F - 46.0 °F 93% 29.96 in 10.0 mi NE 6.9 mph - 0.01 in Rain Light Rain
6:34 AM 46.4 °F 41.9 °F 46.4 °F 100% 29.92 in 10.0 mi NNE 9.2 mph - 0.00 in   Overcast
6:40 AM 48.2 °F - 46.4 °F 93% 29.93 in 10.0 mi NNE 5.8 mph - 0.00 in Thunderstorm Overcast
6:53 AM 48.0 °F - 46.0 °F 93% 29.94 in 10.0 mi East 11.5 mph - 0.01 in Thunderstorm Overcast
6:59 AM 48.2 °F - 46.4 °F 93% 29.94 in 9.0 mi NNE 8.1 mph - 0.02 in Rain Light Rain
7:08 AM 48.2 °F - 46.4 °F 93% 29.92 in 10.0 mi North 10.4 mph - 0.02 in   Overcast
7:21 AM 48.2 °F - 46.4 °F 93% 29.91 in 6.0 mi East 11.5 mph 17.3 mph 0.04 in Rain , Thunderstorm Rain
7:40 AM 48.2 °F - 46.4 °F 93% 29.95 in 10.0 mi NNW 10.4 mph - 0.04 in Rain , Thunderstorm Light Thunderstorms and Rain
7:53 AM 48.0 °F - 46.9 °F 96% 30.00 in 10.0 mi NNW 10.4 mph 28.8 mph 0.05 in Rain , Thunderstorm Light Thunderstorms and Rain
8:08 AM 46.4 °F 40.4 °F 46.4 °F 100% 29.92 in 10.0 mi NE 13.8 mph 24.2 mph 0.00 in Rain , Thunderstorm Light Rain
8:15 AM 46.4 °F 41.1 °F 46.4 °F 100% 29.91 in 10.0 mi ENE 11.5 mph 20.7 mph 0.00 in   Overcast
8:28 AM 48.2 °F - 46.4 °F 93% 29.91 in 6.0 mi East 12.7 mph 20.7 mph 0.02 in Rain , Thunderstorm Heavy Rain
8:53 AM 48.9 °F - 46.9 °F 93% 29.95 in 10.0 mi NNE 5.8 mph - 0.03 in   Overcast
9:01 AM 48.2 °F - 46.4 °F 93% 29.94 in 10.0 mi NE 6.9 mph - N/A   Overcast
9:28 AM 48.2 °F - 46.4 °F 93% 29.90 in 10.0 mi East 10.4 mph 17.3 mph 0.00 in   Overcast
9:53 AM 48.9 °F - 46.0 °F 90% 29.91 in 8.0 mi ENE 6.9 mph - 0.00 in Rain Light Rain
10:01 AM 48.2 °F - 46.4 °F 93% 29.90 in 9.0 mi ENE 8.1 mph - 0.00 in Rain Light Rain
10:53 AM 48.0 °F - 46.0 °F 93% 29.92 in 6.0 mi ENE 5.8 mph - 0.01 in Rain Light Rain
11:39 AM 46.4 °F 42.9 °F 44.6 °F 93% 29.92 in 5.0 mi Variable 6.9 mph - 0.02 in Rain Light Rain
11:53 AM 46.9 °F - 46.0 °F 97% 29.89 in 2.5 mi ENE 6.9 mph - 0.05 in Rain Rain
12:06 PM 48.2 °F - 46.4 °F 93% 29.90 in 5.0 mi ENE 5.8 mph - 0.01 in Rain Light Rain
12:53 PM 48.0 °F - 45.0 °F 89% 29.88 in 10.0 mi NE 9.2 mph - 0.01 in   Overcast
1:34 PM 46.4 °F 45.2 °F 46.4 °F 100% 29.88 in 2.0 mi Variable 3.5 mph - 0.01 in Rain Light Rain
1:53 PM 46.9 °F - 46.0 °F 97% 29.86 in 2.5 mi NNE 5.8 mph - 0.02 in Rain Light Rain
2:00 PM 46.4 °F 42.4 °F 46.4 °F 100% 29.85 in 4.0 mi NE 8.1 mph - 0.00 in   Overcast
2:53 PM 46.9 °F - 45.0 °F 93% 29.86 in 10.0 mi East 6.9 mph - 0.00 in   Overcast
3:02 PM 46.4 °F 44.3 °F 44.6 °F 93% 29.85 in 10.0 mi East 4.6 mph - N/A   Overcast
3:28 PM 46.4 °F 43.5 °F 44.6 °F 93% 29.84 in 10.0 mi ENE 5.8 mph - N/A   Overcast
3:53 PM 48.0 °F - 45.0 °F 89% 29.84 in 10.0 mi ENE 4.6 mph - N/A   Overcast
4:53 PM 46.9 °F - 45.0 °F 93% 29.84 in 10.0 mi NE 4.6 mph - N/A   Overcast
5:53 PM 46.9 °F - 46.0 °F 97% 29.86 in 7.0 mi Calm Calm - N/A   Overcast
6:53 PM 46.9 °F - 45.0 °F 93% 29.85 in 10.0 mi North 3.5 mph - N/A   Overcast
7:53 PM 46.9 °F - 46.0 °F 97% 29.89 in 10.0 mi NW 3.5 mph - N/A   Overcast
8:53 PM 46.9 °F - 46.0 °F 97% 29.89 in 10.0 mi Calm Calm - N/A   Overcast
9:53 PM 46.9 °F - 46.0 °F 97% 29.91 in 10.0 mi Calm Calm - N/A   Overcast
10:53 PM 46.9 °F - 45.0 °F 93% 29.91 in 10.0 mi West 5.8 mph - N/A   Overcast
11:53 PM 46.9 °F - 45.0 °F 93% 29.91 in 10.0 mi WNW 10.4 mph - N/A   Overcast